Погода в Большой Федоровке

Россия / Саратовская область     51°50′50″N   45°30′09″E
темп.,
°C
ветер,
м/с
пор.,
м/с
влажн.,
%
обл.,
%
осадки,
мм/ч
давл.,
гПа
погр.,
м
13 мая, чт
чт1301:00+11ссв22953 0.0 102112
04:00+11ссв33935 0.0 101935
07:00+12всв41092100 0.0 1018273
10:00+16вюв7986100 1.2 1017536
13:00+21юв686868 0.9 10171232
16:00+22ююв686116 1.3 10171523
19:00+21ю367321 2.0 1017187
22:00+16ююз11835 2.0 101811
14 мая, пт
пт1401:00+15юв1183100 0.0 101911
04:00+14в228496 0.0 101919
07:00+16в3785100 0.0 1019154
10:00+20юв5766100 0.0 1019388
13:00+23ююв68530 0.0 1019873
16:00+25ююв69493 0.0 10191135
19:00+23юв410635 0.0 1018287
22:00+19юв41263100 0.0 1018180
15 мая, сб
сб1501:00+17юв4146270 0.0 1018249
04:00+15юв38585 0.0 1018118
07:00+16вюв312615 0.0 1019240
10:00+22юв6124441 0.0 1018438
13:00+25ююв8124070 0.0 1018734
16:00+27ююв7114276 0.0 10171555
19:00+23юв4105683 0.0 1016243
22:00+19юв413565 0.0 1016186
16 мая, вс
вс1601:00+17юв4135817 0.0 1016209
04:00+16ююв4105325 0.0 1016139
07:00+17юв246075 0.0 1017101
10:00+23ю464687 0.0 1017475
13:00+26ююв573916 0.0 10171113
16:00+27ююв57384 0.0 10161350
19:00+25вюв22535 0.0 101530
22:00+20вюв33515 0.0 101527
17 мая, пн
пн1701:00+19вюв335310 0.0 101533
04:00+18в225568 0.0 101512
07:00+19вюв236192 0.0 101652
10:00+25вюв564740 0.0 1016407
13:00+27юв68345 0.0 10151199
16:00+28ююв582924 0.0 10142921
19:00+25вюв23485 0.0 101434
22:00+20вюв33475 0.0 101519